[[{"header":{"parameterUnit":"m.s-1","parameterCategory":1,"la1":30.2991,"la2":30.254,"lo1":-89.0895,"lo2":-89.0444,"dy":0.0017,"dx":0.0017,"nx":28,"ny":28,"refTime":"2025-12-28T03:00:00:Z","depth":0,"parameterNumber":2,"parameterNumberName":"U-component_of_WINDS"},"data":[0,0,0,0,0,0,0,0,0,0,0,0,0,0,0,0,0,0,0,0,0,0,0,0,0,0,0,0,0,0,0,0,0,0,0,0,0,0,0,0,0,0,0,0,0,0,0,0,0,0,0,0,0,0,0,0,0,0,-0.312,-0.312,0,-0.3058,-0.3057,-0.3056,-0.3043,-0.3044,-0.3044,-0.3045,-0.2977,-0.2974,-0.2972,0,0,0,0,0,0,0,0,0,0,0,0,0,-0.3224,-0.3222,-0.312,-0.3119,-0.3119,-0.3058,-0.3057,-0.3056,-0.3043,-0.3044,-0.3044,-0.3045,-0.2977,-0.2975,-0.2972,0,0,0,0,0,0,0,0,0,0,0,0,0,-0.3172,-0.3222,-0.312,-0.3105,-0.3103,-0.3058,-0.3057,-0.3056,-0.3043,-0.3044,-0.3045,-0.3045,-0.2978,-0.2975,-0.2972,-0.2936,0,0,-0.2961,-0.296,0,0,0,0,0,0,0,0,-0.3175,-0.3168,-0.3108,-0.3106,-0.3104,-0.3059,-0.3069,-0.3016,-0.3043,-0.3066,-0.3045,-0.3046,-0.3003,-0.2998,-0.2984,-0.2933,-0.293,-0.2961,-0.2959,-0.2957,-0.2956,0,0,0,0,0,0,0,-0.3178,-0.3171,-0.3095,-0.3107,-0.3105,-0.31,-0.3093,-0.3058,-0.3031,-0.3064,-0.3063,-0.3056,-0.3002,-0.2988,-0.2983,-0.2929,-0.2961,-0.2958,-0.2956,-0.2955,-0.2844,-0.2844,0,0,0,0,0,0,-0.3185,-0.3174,-0.3097,-0.3094,-0.3142,-0.3097,-0.309,-0.3073,-0.3031,-0.3026,-0.3055,-0.3055,-0.2993,-0.2987,-0.298,-0.2935,-0.2957,-0.2954,-0.2952,-0.2845,-0.2844,-0.2843,0,0,0,0,0,0,-0.3188,-0.3179,-0.31,-0.3133,-0.3123,-0.3095,-0.3075,-0.3071,-0.3057,-0.3025,-0.302,-0.3046,-0.2993,-0.2985,-0.2947,-0.2933,-0.2953,-0.295,-0.2846,-0.2845,-0.2844,-0.2846,0,0,0,0,0,0,-0.3191,-0.318,-0.3167,-0.3133,-0.3121,-0.3069,-0.3075,-0.3069,-0.3051,-0.3051,-0.3015,-0.3009,-0.2993,-0.2952,-0.2944,-0.2928,-0.2947,-0.2847,-0.2846,-0.2844,-0.2847,-0.2845,-0.2843,0,0,0,0,0,-0.3194,-0.3169,-0.3166,-0.3157,-0.3105,-0.3069,-0.3061,-0.3045,-0.305,-0.3036,-0.3016,-0.301,-0.2936,-0.2949,-0.2939,-0.2922,-0.2848,-0.2846,-0.2844,-0.2848,-0.2845,-0.2843,0,0,0,0,0,0,-0.32,-0.3164,-0.3161,-0.3124,-0.31,-0.3066,-0.3049,-0.3043,-0.3015,-0.3016,-0.2995,-0.2987,-0.295,-0.2932,-0.2947,-0.2885,-0.2892,-0.2888,-0.2898,-0.2895,-0.2893,-0.2898,-0.2944,0,0,0,0,0,-0.3198,-0.3172,-0.3142,-0.3112,-0.31,-0.3077,-0.306,-0.305,-0.3023,-0.3012,-0.2989,-0.2962,-0.2932,-0.2913,-0.2884,-0.2845,-0.2836,-0.2828,-0.2826,-0.2825,-0.2821,-0.2798,-0.2794,-0.2837,-0.2837,-0.2837,0,0,-0.3191,-0.3168,-0.3153,-0.3113,-0.3093,-0.3066,-0.3068,-0.3039,-0.3018,-0.3007,-0.297,-0.2952,-0.2921,-0.2882,-0.2863,-0.2866,-0.2807,-0.2822,-0.2821,-0.2818,-0.2795,-0.2791,-0.2788,-0.2835,-0.2836,-0.2836,0,0,-0.3165,-0.3146,-0.3119,-0.3099,-0.3069,-0.3054,-0.3047,-0.3015,-0.3003,-0.2966,-0.2957,-0.2931,-0.2881,-0.2858,-0.284,-0.2807,-0.28,-0.2798,-0.2786,-0.2764,-0.2761,-0.2758,-0.2744,-0.274,-0.2794,-0.2794,-0.2794,0,-0.3161,-0.3121,-0.3106,-0.3078,-0.3059,-0.305,-0.3021,-0.3002,-0.2963,-0.295,-0.2954,-0.2891,-0.2869,-0.2824,-0.2816,-0.2802,-0.2793,-0.2801,-0.2763,-0.2759,-0.2756,-0.2743,-0.2739,-0.2794,-0.2794,-0.2794,-0.2794,0,-0.3116,-0.3089,-0.307,-0.3035,-0.3014,-0.2986,-0.2966,-0.2947,-0.2938,-0.2922,-0.2884,-0.2857,-0.2822,-0.2811,-0.2802,-0.2765,-0.2767,-0.2767,-0.2773,-0.2752,-0.274,-0.2735,-0.2794,-0.2794,-0.2794,-0.2794,0,0,-0.3091,-0.3048,-0.3042,-0.3025,-0.2991,-0.2969,-0.294,-0.2907,-0.2891,-0.2865,-0.2839,-0.2797,-0.2797,-0.2776,-0.2764,-0.2745,-0.2719,-0.2747,-0.2746,-0.2742,-0.2675,-0.2674,-0.2669,-0.2715,-0.2714,-0.2713,-0.2677,0,-0.3061,-0.301,-0.2996,-0.2952,-0.2926,-0.2916,-0.289,-0.2866,-0.285,-0.2824,-0.2806,-0.2776,-0.2779,-0.2766,-0.2747,-0.2726,-0.2705,-0.2728,-0.2688,-0.2687,-0.2696,-0.2662,-0.2662,-0.2629,-0.2672,-0.2671,-0.2671,0,-0.3018,-0.2992,-0.2947,-0.2916,-0.2904,-0.2882,-0.285,-0.2826,-0.2798,-0.2788,-0.2765,-0.2755,-0.2723,-0.2732,-0.2687,-0.2703,-0.2686,-0.2673,-0.2672,-0.2666,-0.2677,-0.2655,-0.2618,-0.2613,-0.2663,-0.2664,-0.2664,0,-0.3003,-0.2957,-0.2924,-0.291,-0.2873,-0.2858,-0.2841,-0.2814,-0.2795,-0.2768,-0.2755,-0.2723,-0.2706,-0.2681,-0.2662,-0.2671,-0.2618,-0.2626,-0.2607,-0.2607,-0.2595,-0.2596,-0.2554,-0.2586,-0.2586,-0.2586,-0.2586,0,-0.297,-0.2942,-0.2917,-0.2896,-0.2864,-0.2847,-0.2815,-0.2798,-0.2774,-0.2749,-0.2738,-0.2715,-0.2692,-0.2665,-0.265,-0.2614,-0.2606,-0.2595,-0.2591,-0.2596,-0.2597,-0.2583,-0.2584,-0.2585,-0.2585,-0.2586,-0.2586,0,-0.2947,-0.293,-0.2892,-0.2861,-0.2853,-0.283,-0.2803,-0.2782,-0.2766,-0.2734,-0.2725,-0.2699,-0.2667,-0.2646,-0.2604,-0.2594,-0.2554,-0.2551,-0.2564,-0.2562,-0.2544,-0.2545,-0.2491,-0.2482,-0.2521,-0.2521,-0.2521,0,-0.2927,-0.2905,-0.2872,-0.2855,-0.2839,-0.2812,-0.2793,-0.2775,-0.2756,-0.2722,-0.2705,-0.2672,-0.2644,-0.2592,-0.2569,-0.2537,-0.2532,-0.2516,-0.2527,-0.2532,-0.253,-0.2532,-0.2529,-0.2513,-0.2513,-0.2513,-0.2512,0,-0.2892,-0.2884,-0.2858,-0.2828,-0.2806,-0.2782,-0.2758,-0.2744,-0.2722,-0.27,-0.2668,-0.2646,-0.2604,-0.2571,-0.2537,-0.2518,-0.2511,-0.2509,-0.2503,-0.2506,-0.2514,-0.2508,-0.2557,-0.251,-0.251,-0.251,-0.2511,-0.2511,-0.2868,-0.2849,-0.2822,-0.2793,-0.2773,-0.2751,-0.2729,-0.2711,-0.2684,-0.2649,-0.264,-0.2605,-0.2577,-0.253,-0.2512,-0.2483,-0.2485,-0.2476,-0.2474,-0.2472,-0.2471,-0.252,-0.2477,-0.2477,-0.2477,-0.2477,-0.2477,0,-0.2832,-0.2815,-0.2788,-0.2755,-0.2732,-0.2729,-0.2702,-0.2682,-0.2652,-0.2627,-0.2601,-0.2562,-0.253,-0.2505,-0.2471,-0.2453,-0.2449,-0.2445,-0.2445,-0.2441,-0.2472,-0.248,-0.2449,-0.2449,-0.2449,-0.2449,-0.2449,-0.2449,-0.281,-0.2776,-0.2765,-0.2721,-0.2703,-0.267,-0.2655,-0.2633,-0.2613,-0.2572,-0.2545,-0.253,-0.2504,-0.2468,-0.2438,-0.2431,-0.2419,-0.2415,-0.2408,-0.2436,-0.2439,-0.2442,-0.245,-0.2413,-0.2413,-0.2379,-0.2379,-0.2379]},{"header":{"parameterUnit":"m.s-1","parameterCategory":1,"la1":30.2991,"la2":30.254,"lo1":-89.0895,"lo2":-89.0444,"dy":0.0017,"dx":0.0017,"nx":28,"ny":28,"refTime":"2025-12-28T03:00:00:Z","depth":0,"parameterNumber":3,"parameterNumberName":"V-component_of_WINDS"},"data":[0,0,0,0,0,0,0,0,0,0,0,0,0,0,0,0,0,0,0,0,0,0,0,0,0,0,0,0,0,0,0,0,0,0,0,0,0,0,0,0,0,0,0,0,0,0,0,0,0,0,0,0,0,0,0,0,0,0,1.8563,1.8565,0,1.8686,1.8688,1.8689,1.8734,1.8734,1.8733,1.8733,1.8856,1.8859,1.8863,0,0,0,0,0,0,0,0,0,0,0,0,0,1.8368,1.8371,1.8563,1.8565,1.8566,1.8686,1.8688,1.8689,1.8734,1.8734,1.8733,1.8733,1.8855,1.8859,1.8863,0,0,0,0,0,0,0,0,0,0,0,0,0,1.8468,1.8372,1.8563,1.8603,1.8608,1.8686,1.8688,1.869,1.8734,1.8734,1.8733,1.8732,1.8853,1.8859,1.8864,1.891,0,0,1.8881,1.8883,0,0,0,0,0,0,0,0,1.8462,1.8475,1.8596,1.8601,1.8606,1.8694,1.8664,1.8764,1.8734,1.8686,1.8733,1.8732,1.8802,1.8812,1.8836,1.8916,1.8921,1.8881,1.8885,1.8887,1.8888,0,0,0,0,0,0,0,1.8455,1.847,1.8612,1.8597,1.8604,1.8615,1.8629,1.8683,1.8746,1.869,1.8694,1.8708,1.8805,1.8831,1.884,1.8923,1.8881,1.8886,1.8889,1.8892,1.9051,1.9052,0,0,0,0,0,0,1.8442,1.8464,1.8608,1.8616,1.8531,1.8619,1.8634,1.8667,1.8746,1.8757,1.8708,1.871,1.8822,1.8833,1.8844,1.8906,1.8887,1.8892,1.8895,1.905,1.9051,1.9052,0,0,0,0,0,0,1.8437,1.8454,1.8603,1.8541,1.8561,1.8623,1.8659,1.8669,1.8695,1.8759,1.8771,1.8723,1.8822,1.8836,1.8895,1.8911,1.8895,1.89,1.9049,1.905,1.9051,1.9028,0,0,0,0,0,0,1.8431,1.8452,1.847,1.8541,1.8564,1.8651,1.866,1.8672,1.8705,1.8708,1.8776,1.8787,1.8823,1.8886,1.89,1.8918,1.8904,1.9047,1.9049,1.9051,1.9028,1.9029,1.903,0,0,0,0,0,1.8424,1.8457,1.847,1.8488,1.8587,1.8652,1.8665,1.8706,1.8706,1.8725,1.8767,1.8785,1.8907,1.8892,1.8908,1.8928,1.9047,1.9049,1.9051,1.9028,1.9029,1.903,0,0,0,0,0,0,1.8384,1.8467,1.8483,1.8539,1.8589,1.8659,1.8684,1.8705,1.8754,1.8755,1.8803,1.8818,1.8873,1.8906,1.8888,1.8979,1.8978,1.8983,1.8955,1.8956,1.8957,1.8948,1.8908,0,0,0,0,0,1.8382,1.8428,1.8498,1.8541,1.8565,1.8621,1.865,1.8678,1.873,1.8751,1.8797,1.8846,1.8897,1.8928,1.8977,1.9033,1.905,1.9055,1.9056,1.9056,1.906,1.9096,1.9099,1.9059,1.9059,1.9059,0,0,1.8378,1.8429,1.8454,1.8535,1.8576,1.8623,1.8637,1.8685,1.8721,1.8758,1.8817,1.8852,1.8911,1.8969,1.8997,1.8998,1.9076,1.9059,1.9059,1.9063,1.9098,1.9102,1.9105,1.906,1.906,1.906,0,0,1.8395,1.8437,1.848,1.8522,1.8585,1.8623,1.8633,1.8702,1.8728,1.8788,1.8817,1.886,1.8944,1.8986,1.9018,1.9056,1.9075,1.907,1.9075,1.9108,1.9112,1.9115,1.913,1.9135,1.9074,1.9074,1.9074,0,1.8382,1.8454,1.8498,1.8547,1.8582,1.862,1.8664,1.8702,1.8778,1.8802,1.8803,1.8912,1.8954,1.9024,1.9034,1.9058,1.9072,1.9063,1.9108,1.9111,1.9115,1.913,1.9136,1.9074,1.9074,1.9074,1.9074,0,1.8436,1.8486,1.8512,1.8587,1.8625,1.8671,1.8724,1.8757,1.8783,1.882,1.8882,1.8935,1.8997,1.9016,1.9039,1.909,1.909,1.9098,1.9099,1.9117,1.9133,1.9139,1.9072,1.9073,1.9073,1.9073,0,0,1.8428,1.853,1.8539,1.8575,1.865,1.869,1.8738,1.8801,1.883,1.8881,1.8925,1.8997,1.9007,1.9044,1.9073,1.9103,1.9133,1.9109,1.9111,1.9113,1.9195,1.9188,1.9194,1.9146,1.9147,1.9148,1.919,0,1.8456,1.8545,1.8589,1.8659,1.8708,1.8746,1.8789,1.884,1.8877,1.8924,1.8964,1.9016,1.9024,1.9047,1.9078,1.9122,1.915,1.912,1.9187,1.9189,1.9172,1.9202,1.9195,1.9231,1.9196,1.9197,1.9198,0,1.8499,1.8554,1.863,1.8703,1.8725,1.8762,1.8825,1.8869,1.8928,1.8954,1.8997,1.9027,1.908,1.9078,1.9154,1.9132,1.9163,1.9189,1.9192,1.92,1.9195,1.9212,1.9244,1.925,1.9208,1.9207,1.9206,0,1.8489,1.8581,1.8639,1.8669,1.8754,1.8781,1.8817,1.8876,1.8913,1.8968,1.8992,1.9052,1.9085,1.9131,1.9176,1.9169,1.9249,1.9249,1.9272,1.9271,1.9287,1.9285,1.9325,1.9305,1.9304,1.9304,1.9304,0,1.8516,1.8561,1.8637,1.8672,1.8725,1.8776,1.8827,1.8866,1.892,1.8965,1.9001,1.9042,1.91,1.9149,1.9184,1.9244,1.9257,1.928,1.9289,1.9278,1.9275,1.9298,1.9297,1.9306,1.9306,1.9305,1.9305,0,1.8512,1.8564,1.8631,1.8708,1.8729,1.8765,1.8831,1.8868,1.8908,1.8965,1.8981,1.9045,1.9105,1.9155,1.9233,1.9257,1.9319,1.9329,1.93,1.9305,1.9326,1.9324,1.9383,1.9394,1.9365,1.9365,1.9365,0,1.8526,1.8563,1.8645,1.8679,1.8716,1.8769,1.8807,1.8859,1.8898,1.8971,1.8999,1.9063,1.9116,1.921,1.9263,1.9324,1.9336,1.9353,1.9346,1.9334,1.9339,1.9337,1.9342,1.9353,1.9354,1.9354,1.9354,0,1.8546,1.8571,1.8625,1.869,1.8735,1.8788,1.8841,1.8867,1.8929,1.8971,1.9034,1.9075,1.9158,1.922,1.9288,1.9326,1.9351,1.9356,1.9365,1.9353,1.9336,1.9348,1.9303,1.9354,1.9354,1.9354,1.9354,1.9354,1.8553,1.8589,1.8653,1.8713,1.876,1.8811,1.885,1.8897,1.8951,1.9023,1.9051,1.9116,1.9178,1.9272,1.9311,1.9363,1.9366,1.9378,1.9381,1.9384,1.9383,1.9327,1.9375,1.9375,1.9375,1.9375,1.9375,0,1.8576,1.8621,1.8676,1.8752,1.88,1.8821,1.8883,1.8921,1.8979,1.9035,1.9088,1.9163,1.9225,1.9284,1.935,1.938,1.9394,1.9396,1.9394,1.9404,1.9376,1.9362,1.9384,1.9384,1.9384,1.9384,1.9384,1.9384,1.8594,1.8657,1.869,1.8777,1.8821,1.8887,1.8921,1.8968,1.9014,1.9096,1.9149,1.9188,1.9246,1.9317,1.9376,1.9392,1.9415,1.9415,1.9434,1.9407,1.9405,1.9403,1.9391,1.9419,1.9419,1.9457,1.9458,1.9458]}]]